Station Historical Data
Daily Summary for April 8, 2017 Units:  Metric    English   Both
« Previous Day
Next Day »
Daily Weekly Monthly Yearly Custom
  High: Low: Average:
Temperature: 9.2 °C -1.7 °C 3.8 °C
Dew Point: -0.3 °C -7.3 °C -2.8 °C
Humidity: 82% 33% 63%
Wind Speed: 25.7km/h 0km/h 7.6km/h
Wind Gust: 29km/h - -
Wind- - West
Pressure: 1017.5 hPa 1011.1 hPa -
Precipitation: 0 mm    
Historical Graphs
 
 
Tabular Data for April 8, 2017
Time Temperature Dew Point Pressure Wind Wind Speed Wind Gust Humidity Rainfall Rate (Hourly)
00:04 1.2 °C -4.3 °C 1011.1 hPa West 6.4 km/h 14.5 km/h 67% 0 mm
00:09 1.1 °C -4.3 °C 1011.1 hPa West 6.4 km/h 12.9 km/h 67% 0 mm
00:14 1.1 °C -4.2 °C 1011.1 hPa West 3.2 km/h 11.3 km/h 68% 0 mm
00:19 1.1 °C -4.2 °C 1011.4 hPa WNW 8 km/h 11.3 km/h 68% 0 mm
00:24 1 °C -4.2 °C 1011.4 hPa West 6.4 km/h 12.9 km/h 68% 0 mm
00:29 1.1 °C -4.4 °C 1011.4 hPa WNW 8 km/h 9.7 km/h 67% 0 mm
00:34 1 °C -4.2 °C 1011.4 hPa West 4.8 km/h 12.9 km/h 68% 0 mm
00:39 0.9 °C -4.3 °C 1011.4 hPa West 6.4 km/h 11.3 km/h 68% 0 mm
00:49 0.9 °C -4.3 °C 1011.4 hPa West 6.4 km/h 9.7 km/h 68% 0 mm
00:54 0.9 °C -4.3 °C 1011.4 hPa West 6.4 km/h 12.9 km/h 68% 0 mm
00:59 0.8 °C -4.3 °C 1011.4 hPa West 4.8 km/h 12.9 km/h 69% 0 mm
01:04 0.8 °C -4.3 °C 1011.4 hPa West 4.8 km/h 11.3 km/h 69% 0 mm
01:09 0.7 °C -4.3 °C 1011.4 hPa West 4.8 km/h 9.7 km/h 69% 0 mm
01:14 0.6 °C -4.4 °C 1011.7 hPa West 3.2 km/h 9.7 km/h 69% 0 mm
01:19 0.6 °C -4.3 °C 1011.7 hPa West 6.4 km/h 9.7 km/h 70% 0 mm
01:24 0.5 °C -4.3 °C 1011.4 hPa West 4.8 km/h 9.7 km/h 70% 0 mm
01:29 0.4 °C -4.2 °C 1011.4 hPa West 6.4 km/h 11.3 km/h 71% 0 mm
01:34 0.4 °C -4.2 °C 1011.7 hPa West 6.4 km/h 11.3 km/h 71% 0 mm
01:39 0.4 °C -4.2 °C 1011.7 hPa West 4.8 km/h 11.3 km/h 71% 0 mm
01:44 0.4 °C -4.3 °C 1011.4 hPa WNW 8 km/h 11.3 km/h 71% 0 mm
01:49 0.4 °C -4.3 °C 1011.7 hPa SW 3.2 km/h 12.9 km/h 71% 0 mm
01:54 0.4 °C -4.3 °C 1011.7 hPa West 6.4 km/h 12.9 km/h 71% 0 mm
01:59 0.4 °C -4.1 °C 1011.7 hPa WNW 6.4 km/h 11.3 km/h 72% 0 mm
02:04 0.4 °C -4.1 °C 1011.7 hPa WNW 4.8 km/h 11.3 km/h 72% 0 mm
02:09 0.4 °C -4.1 °C 1011.7 hPa West 8 km/h 9.7 km/h 72% 0 mm
02:14 0.3 °C -4.1 °C 1011.7 hPa West 6.4 km/h 11.3 km/h 72% 0 mm
02:19 0.3 °C -4.1 °C 1011.7 hPa West 8 km/h 11.3 km/h 72% 0 mm
02:24 0.3 °C -4 °C 1011.7 hPa West 6.4 km/h 11.3 km/h 73% 0 mm
02:29 0.3 °C -4 °C 1011.4 hPa WNW 6.4 km/h 11.3 km/h 73% 0 mm
02:34 0.3 °C -4 °C 1011.7 hPa WNW 4.8 km/h 11.3 km/h 73% 0 mm
02:39 0.2 °C -4.1 °C 1011.7 hPa WNW 6.4 km/h 11.3 km/h 73% 0 mm
02:44 0.3 °C -3.8 °C 1011.7 hPa WNW 3.2 km/h 9.7 km/h 74% 0 mm
02:49 0.2 °C -4.1 °C 1011.7 hPa WNW 4.8 km/h 9.7 km/h 73% 0 mm
02:54 0.2 °C -3.9 °C 1011.7 hPa WNW 4.8 km/h 9.7 km/h 74% 0 mm
02:59 0.2 °C -3.9 °C 1011.7 hPa West 6.4 km/h 9.7 km/h 74% 0 mm
03:04 0.2 °C -3.9 °C 1011.7 hPa West 6.4 km/h 11.3 km/h 74% 0 mm
03:09 0.2 °C -3.9 °C 1011.7 hPa WNW 3.2 km/h 11.3 km/h 74% 0 mm
03:14 0.1 °C -4 °C 1011.7 hPa West 3.2 km/h 9.7 km/h 74% 0 mm
03:19 0.1 °C -3.8 °C 1011.7 hPa WNW 3.2 km/h 9.7 km/h 75% 0 mm
03:24 0 °C -3.9 °C 1011.7 hPa WNW 4.8 km/h 9.7 km/h 75% 0 mm
03:29 0 °C -3.9 °C 1011.7 hPa WNW 4.8 km/h 9.7 km/h 75% 0 mm
03:34 0 °C -3.9 °C 1011.7 hPa WNW 4.8 km/h 9.7 km/h 75% 0 mm
03:39 0.1 °C -3.8 °C 1012.1 hPa WNW 4.8 km/h 11.3 km/h 75% 0 mm
03:44 0.1 °C -3.8 °C 1012.1 hPa WNW 12.9 km/h 12.9 km/h 75% 0 mm
03:49 0.2 °C -3.7 °C 1012.1 hPa WNW 4.8 km/h 12.9 km/h 75% 0 mm
03:54 0.1 °C -3.8 °C 1012.1 hPa WNW 4.8 km/h 12.9 km/h 75% 0 mm
03:59 0.1 °C -3.8 °C 1012.1 hPa WNW 3.2 km/h 8 km/h 75% 0 mm
04:04 0 °C -3.7 °C 1012.1 hPa WNW 3.2 km/h 8 km/h 76% 0 mm
04:09 0 °C -3.7 °C 1012.1 hPa WNW 3.2 km/h 8 km/h 76% 0 mm
04:14 0.1 °C -3.7 °C 1012.1 hPa WNW 4.8 km/h 8 km/h 76% 0 mm
04:19 0 °C -3.7 °C 1012.4 hPa WNW 3.2 km/h 9.7 km/h 76% 0 mm
04:24 -0.1 °C -3.8 °C 1012.1 hPa West 3.2 km/h 8 km/h 76% 0 mm
04:29 -0.1 °C -3.8 °C 1012.4 hPa WNW 4.8 km/h 11.3 km/h 76% 0 mm
04:34 -0.1 °C -3.8 °C 1012.4 hPa WNW 4.8 km/h 11.3 km/h 76% 0 mm
04:39 -0.1 °C -3.8 °C 1012.4 hPa WNW 4.8 km/h 6.4 km/h 76% 0 mm
04:44 -0.2 °C -3.9 °C 1012.4 hPa WNW 4.8 km/h 8 km/h 76% 0 mm
04:49 -0.2 °C -3.9 °C 1012.4 hPa West 6.4 km/h 6.4 km/h 76% 0 mm
04:54 -0.3 °C -4.1 °C 1012.8 hPa WNW 4.8 km/h 8 km/h 76% 0 mm
04:59 -0.4 °C -3.9 °C 1012.8 hPa West 4.8 km/h 8 km/h 77% 0 mm
05:04 -0.4 °C -4 °C 1012.8 hPa West 3.2 km/h 8 km/h 77% 0 mm
05:09 -0.6 °C -4.1 °C 1012.8 hPa West 3.2 km/h 6.4 km/h 77% 0 mm
05:14 -0.6 °C -4.2 °C 1013.1 hPa West 3.2 km/h 6.4 km/h 77% 0 mm
05:19 -0.7 °C -4.2 °C 1013.1 hPa West 1.6 km/h 4.8 km/h 77% 0 mm
05:24 -0.8 °C -4.1 °C 1013.1 hPa West 1.6 km/h 6.4 km/h 78% 0 mm
05:29 -0.9 °C -4.3 °C 1013.1 hPa West 1.6 km/h 6.4 km/h 78% 0 mm
05:34 -1.1 °C -4.2 °C 1013.1 hPa West 1.6 km/h 4.8 km/h 79% 0 mm
05:39 -1.2 °C -4.3 °C 1013.1 hPa West 1.6 km/h 4.8 km/h 79% 0 mm
05:44 -1.2 °C -4.2 °C 1013.4 hPa West 1.6 km/h 8 km/h 80% 0 mm
05:49 -1.2 °C -4.2 °C 1013.4 hPa West 3.2 km/h 6.4 km/h 80% 0 mm
05:54 -1.2 °C -4.2 °C 1013.4 hPa Calm   4.8 km/h 80% 0 mm
06:04 -1.3 °C -4.2 °C 1013.4 hPa West 1.6 km/h 6.4 km/h 81% 0 mm
06:09 -1.3 °C -4.2 °C 1013.4 hPa West 1.6 km/h 4.8 km/h 81% 0 mm
06:14 -1.3 °C -4.2 °C 1013.8 hPa WNW 3.2 km/h 4.8 km/h 81% 0 mm
06:19 -1.4 °C -4.2 °C 1013.8 hPa West 3.2 km/h 6.4 km/h 81% 0 mm
06:24 -1.3 °C -4.2 °C 1013.8 hPa West 1.6 km/h 4.8 km/h 81% 0 mm
06:29 -1.3 °C -4.1 °C 1014.1 hPa West 3.2 km/h 8 km/h 81% 0 mm
06:34 -1.3 °C -4.2 °C 1014.1 hPa West 3.2 km/h 8 km/h 81% 0 mm
06:39 -1.4 °C -4.2 °C 1014.1 hPa West 1.6 km/h 6.4 km/h 81% 0 mm
06:44 -1.6 °C -4.4 °C 1014.4 hPa West 1.6 km/h 4.8 km/h 81% 0 mm
06:49 -1.7 °C -4.3 °C 1014.4 hPa West 1.6 km/h 4.8 km/h 82% 0 mm
06:54 -1.7 °C -4.3 °C 1014.4 hPa Calm     82% 0 mm
06:59 -1.6 °C -4.3 °C 1014.4 hPa Calm     82% 0 mm
07:04 -1.7 °C -4.4 °C 1014.4 hPa Calm     82% 0 mm
07:09 -1.6 °C -4.3 °C 1014.4 hPa Calm     82% 0 mm
07:14 -1.4 °C -4.1 °C 1014.4 hPa West 3.2 km/h 8 km/h 82% 0 mm
07:19 -1.2 °C -3.9 °C 1014.8 hPa West 6.4 km/h 6.4 km/h 82% 0 mm
07:24 -0.9 °C -3.8 °C 1014.8 hPa WNW 4.8 km/h 8 km/h 81% 0 mm
07:29 -0.7 °C -3.6 °C 1014.8 hPa West 4.8 km/h 8 km/h 81% 0 mm
07:34 -0.6 °C -3.6 °C 1014.8 hPa West 4.8 km/h 8 km/h 80% 0 mm
07:39 -0.3 °C -3.6 °C 1015.1 hPa West 4.8 km/h 8 km/h 79% 0 mm
07:44 -0.2 °C -3.4 °C 1015.1 hPa WNW 3.2 km/h 9.7 km/h 79% 0 mm
07:49 0.1 °C -3.2 °C 1015.5 hPa WSW 3.2 km/h 12.9 km/h 79% 0 mm
07:54 0.3 °C -3.1 °C 1015.5 hPa West 4.8 km/h 9.7 km/h 78% 0 mm
07:59 0.5 °C -2.9 °C 1015.5 hPa West 4.8 km/h 11.3 km/h 78% 0 mm
08:04 0.7 °C -2.9 °C 1015.5 hPa WNW 6.4 km/h 11.3 km/h 77% 0 mm
08:14 1.1 °C -2.7 °C 1015.5 hPa West 8 km/h 9.7 km/h 76% 0 mm
08:19 1.3 °C -2.5 °C 1015.8 hPa WNW 6.4 km/h 9.7 km/h 76% 0 mm
08:24 1.4 °C -2.5 °C 1015.8 hPa WNW 9.7 km/h 12.9 km/h 75% 0 mm
08:29 1.7 °C -2.3 °C 1015.8 hPa WNW 6.4 km/h 12.9 km/h 75% 0 mm
08:34 2 °C -2.3 °C 1015.8 hPa WNW 4.8 km/h 11.3 km/h 73% 0 mm
08:39 2.2 °C -2.3 °C 1015.8 hPa WNW 3.2 km/h 12.9 km/h 72% 0 mm
08:44 2.6 °C -2.2 °C 1015.8 hPa NNW 3.2 km/h 9.7 km/h 71% 0 mm
08:54 3 °C -2.3 °C 1015.8 hPa NW 8 km/h 11.3 km/h 68% 0 mm
08:59 3.3 °C -2.3 °C 1015.8 hPa NW 4.8 km/h 11.3 km/h 67% 0 mm
09:04 3.6 °C -2.4 °C 1015.8 hPa NW 6.4 km/h 11.3 km/h 65% 0 mm
09:09 3.6 °C -2.6 °C 1015.8 hPa NW 6.4 km/h 11.3 km/h 64% 0 mm
09:14 3.6 °C -2.8 °C 1015.8 hPa NW 9.7 km/h 11.3 km/h 63% 0 mm
09:19 3.7 °C -3.2 °C 1015.8 hPa North 8 km/h 12.9 km/h 61% 0 mm
09:24 3.8 °C -2.8 °C 1015.8 hPa NNW 8 km/h 11.3 km/h 62% 0 mm
09:29 3.8 °C -3.2 °C 1015.8 hPa NNW 6.4 km/h 12.9 km/h 60% 0 mm
09:34 4 °C -3.1 °C 1015.8 hPa NW 6.4 km/h 14.5 km/h 60% 0 mm
09:39 4.1 °C -2.9 °C 1015.8 hPa NW 6.4 km/h 14.5 km/h 60% 0 mm
09:44 4.2 °C -3.3 °C 1016.1 hPa NW 8 km/h 14.5 km/h 58% 0 mm
09:49 4.2 °C -3.1 °C 1016.1 hPa NW 3.2 km/h 16.1 km/h 59% 0 mm
09:54 4.4 °C -2.9 °C 1016.1 hPa WNW 6.4 km/h 12.9 km/h 59% 0 mm
09:59 4.7 °C -3.1 °C 1016.1 hPa NW 6.4 km/h 12.9 km/h 57% 0 mm
10:04 4.6 °C -3.2 °C 1016.1 hPa WNW 6.4 km/h 14.5 km/h 57% 0 mm
10:09 4.7 °C -3.1 °C 1016.5 hPa WNW 8 km/h 14.5 km/h 57% 0 mm
10:14 4.8 °C -3.1 °C 1016.5 hPa WNW 6.4 km/h 14.5 km/h 57% 0.51 mm
10:19 5.2 °C -3.4 °C 1016.5 hPa WNW 6.4 km/h 14.5 km/h 54% 0.51 mm
10:24 5 °C -4.1 °C 1016.5 hPa NNW 6.4 km/h 14.5 km/h 52% 0.76 mm
10:29 5.2 °C -3.3 °C 1016.5 hPa WNW 8 km/h 16.1 km/h 54% 0.76 mm
10:34 5.1 °C -3.7 °C 1016.5 hPa NW 6.4 km/h 16.1 km/h 53% 1.02 mm
10:39 5.5 °C -3.1 °C 1016.5 hPa West 8 km/h 12.9 km/h 54% 1.27 mm
10:44 5.6 °C -3.3 °C 1016.8 hPa NW 4.8 km/h 11.3 km/h 53% 1.27 mm
10:49 5.8 °C -2.8 °C 1016.8 hPa WNW 9.7 km/h 12.9 km/h 54% 1.52 mm
10:54 5.7 °C -4.2 °C 1016.8 hPa WNW 4.8 km/h 16.1 km/h 49% 1.78 mm
10:59 5.8 °C -3.3 °C 1016.8 hPa WNW 6.4 km/h 14.5 km/h 52% 1.78 mm
11:04 5.9 °C -3.4 °C 1016.8 hPa WNW 8 km/h 17.7 km/h 51% 2.03 mm
11:09 5.8 °C -4.6 °C 1016.8 hPa WNW 9.7 km/h 19.3 km/h 47% 2.03 mm
11:14 6 °C -5.1 °C 1016.8 hPa WNW 11.3 km/h 22.5 km/h 45% 1.78 mm
11:19 6.1 °C -4.7 °C 1017.2 hPa NW 9.7 km/h 22.5 km/h 46% 1.78 mm
11:24 6.3 °C -4.2 °C 1016.8 hPa West 11.3 km/h 16.1 km/h 47% 1.78 mm
11:29 6.1 °C -5 °C 1017.2 hPa NW 6.4 km/h 16.1 km/h 45% 1.78 mm
11:34 6.3 °C -5.7 °C 1017.2 hPa NW 8 km/h 16.1 km/h 42% 1.78 mm
11:39 6.5 °C -5.2 °C 1017.2 hPa NW 8 km/h 16.1 km/h 43% 1.52 mm
11:44 6.7 °C -5 °C 1017.2 hPa WNW 8 km/h 16.1 km/h 43% 1.78 mm
11:49 6.7 °C -5.7 °C 1017.2 hPa WNW 9.7 km/h 19.3 km/h 41% 1.52 mm
11:54 6.8 °C -4.6 °C 1017.2 hPa NW 6.4 km/h 16.1 km/h 44% 1.52 mm
11:59 6.7 °C -5.3 °C 1017.2 hPa West 9.7 km/h 16.1 km/h 42% 1.52 mm
12:04 7.3 °C -3.6 °C 1017.2 hPa NW 9.7 km/h 17.7 km/h 46% 1.52 mm
12:09 7.4 °C -4.3 °C 1016.8 hPa NW 8 km/h 17.7 km/h 43% 1.52 mm
12:14 7.7 °C -5.1 °C 1016.8 hPa NW 6.4 km/h 12.9 km/h 40% 1.52 mm
12:19 7.7 °C -4.4 °C 1016.8 hPa NW 6.4 km/h 12.9 km/h 42% 1.52 mm
12:24 7.7 °C -4.8 °C 1016.8 hPa NNW 6.4 km/h 16.1 km/h 41% 1.27 mm
12:29 7.9 °C -4.6 °C 1016.8 hPa NW 8 km/h 16.1 km/h 41% 1.27 mm
12:34 7.9 °C -6.7 °C 1016.8 hPa West 11.3 km/h 16.1 km/h 35% 1.02 mm
12:39 7.8 °C -5.3 °C 1016.8 hPa NNW 9.7 km/h 16.1 km/h 39% 1.02 mm
12:44 8.8 °C -4.4 °C 1016.8 hPa NNW 4.8 km/h 17.7 km/h 39% 0.76 mm
12:49 8 °C -6.6 °C 1016.8 hPa WNW 3.2 km/h 16.1 km/h 35% 0.76 mm
12:54 8 °C -7.3 °C 1016.8 hPa WNW 3.2 km/h 19.3 km/h 33% 0.51 mm
12:59 8.2 °C -6 °C 1016.8 hPa North 3.2 km/h 16.1 km/h 36% 0.51 mm
13:04 8.4 °C -5.1 °C 1017.2 hPa NW 8 km/h 16.1 km/h 38% 0.25 mm
13:09 8.4 °C -5.1 °C 1017.2 hPa NW 8 km/h 20.9 km/h 38% 0.25 mm
13:14 8.1 °C -6.2 °C 1017.2 hPa WNW 9.7 km/h 20.9 km/h 36% 0 mm
13:24 8.4 °C -4.7 °C 1017.2 hPa NW 6.4 km/h 17.7 km/h 39% 0 mm
13:29 8.9 °C -4.7 °C 1016.8 hPa NW 6.4 km/h 17.7 km/h 38% 0 mm
13:34 9.2 °C -5.2 °C 1016.8 hPa WNW 8 km/h 17.7 km/h 36% 0 mm
13:39 9.2 °C -5.9 °C 1016.8 hPa WNW 9.7 km/h 20.9 km/h 34% 0 mm
13:44 9.1 °C -1.7 °C 1016.8 hPa West 8 km/h 19.3 km/h 47% 0 mm
13:49 8.2 °C -1.9 °C 1016.8 hPa West 11.3 km/h 24.1 km/h 49% 0 mm
13:54 8.2 °C -1.1 °C 1016.8 hPa South 9.7 km/h 22.5 km/h 52% 0 mm
13:59 8 °C -1.6 °C 1016.8 hPa West 11.3 km/h 20.9 km/h 51% 0 mm
14:04 7.8 °C -1.9 °C 1016.8 hPa SSW 12.9 km/h 20.9 km/h 50% 0 mm
14:09 7.6 °C -1.4 °C 1016.8 hPa SW 12.9 km/h 22.5 km/h 53% 0 mm
14:14 7.2 °C -1 °C 1016.8 hPa SW 12.9 km/h 27.4 km/h 56% 0 mm
14:19 7.7 °C -0.3 °C 1016.8 hPa SW 12.9 km/h 27.4 km/h 57% 0 mm
14:24 7.9 °C -0.6 °C 1016.8 hPa SSW 9.7 km/h 16.1 km/h 55% 0 mm
14:29 7.7 °C -0.3 °C 1016.8 hPa SSE 8 km/h 22.5 km/h 57% 0 mm
14:34 7.3 °C -1.2 °C 1016.8 hPa South 12.9 km/h 25.7 km/h 55% 0 mm
14:39 7.4 °C -1.8 °C 1016.8 hPa WSW 12.9 km/h 25.7 km/h 52% 0 mm
14:44 7.2 °C -1.7 °C 1016.8 hPa WSW 12.9 km/h 25.7 km/h 53% 0 mm
14:49 7.3 °C -1.9 °C 1016.8 hPa WSW 14.5 km/h 25.7 km/h 52% 0 mm
14:54 8.1 °C -0.7 °C 1016.8 hPa SW 4.8 km/h 19.3 km/h 54% 0 mm
14:59 7.9 °C -1.9 °C 1016.8 hPa West 9.7 km/h 20.9 km/h 50% 0 mm
15:04 7.4 °C -2.3 °C 1016.8 hPa West 14.5 km/h 27.4 km/h 50% 0 mm
15:09 7.5 °C -2 °C 1016.8 hPa WSW 14.5 km/h 27.4 km/h 51% 0 mm
15:14 7.9 °C -1.6 °C 1017.2 hPa WSW 12.9 km/h 24.1 km/h 51% 0 mm
15:19 7.6 °C -2.2 °C 1017.2 hPa SW 19.3 km/h 24.1 km/h 50% 0 mm
15:24 7.5 °C -2.6 °C 1017.2 hPa WSW 16.1 km/h 25.7 km/h 49% 0 mm
15:29 7.6 °C -2.5 °C 1017.2 hPa WSW 17.7 km/h 25.7 km/h 49% 0 mm
15:34 7.6 °C -2.2 °C 1017.2 hPa WSW 8 km/h 24.1 km/h 50% 0 mm
15:39 7.6 °C -2.2 °C 1017.2 hPa WSW 14.5 km/h 29 km/h 50% 0 mm
15:44 7.6 °C -2.2 °C 1017.2 hPa WSW 16.1 km/h 29 km/h 50% 0 mm
15:49 7.5 °C -3.1 °C 1016.8 hPa WSW 16.1 km/h 25.7 km/h 47% 0 mm
15:54 7.8 °C -2.2 °C 1016.8 hPa SW 11.3 km/h 24.1 km/h 49% 0 mm
15:59 8 °C -2.3 °C 1016.8 hPa SW 12.9 km/h 29 km/h 48% 0 mm
16:04 7.9 °C -2.2 °C 1016.8 hPa SW 12.9 km/h 29 km/h 49% 0 mm
16:09 7.8 °C -2.3 °C 1016.8 hPa SW 14.5 km/h 24.1 km/h 49% 0 mm
16:14 7.7 °C -2.7 °C 1016.8 hPa SW 16.1 km/h 27.4 km/h 48% 0 mm
16:19 7.8 °C -1.9 °C 1016.8 hPa SSW 14.5 km/h 24.1 km/h 50% 0 mm
16:24 7.8 °C -2.2 °C 1017.2 hPa West 14.5 km/h 24.1 km/h 49% 0 mm
16:29 7.8 °C -2.6 °C 1016.8 hPa SW 12.9 km/h 22.5 km/h 48% 0 mm
16:34 7.7 °C -3.2 °C 1016.8 hPa SW 22.5 km/h 25.7 km/h 46% 0 mm
16:39 7.6 °C -3 °C 1016.8 hPa West 14.5 km/h 24.1 km/h 47% 0 mm
16:44 7.8 °C -2.8 °C 1016.8 hPa SW 16.1 km/h 25.7 km/h 47% 0 mm
16:49 7.8 °C -1.9 °C 1016.8 hPa SW 14.5 km/h 27.4 km/h 50% 0 mm
16:54 7.9 °C -1.8 °C 1016.5 hPa SW 12.9 km/h 27.4 km/h 50% 0 mm
16:59 7.8 °C -2 °C 1016.5 hPa SW 12.9 km/h 24.1 km/h 50% 0 mm
17:04 7.7 °C -2.1 °C 1016.5 hPa SW 14.5 km/h 29 km/h 50% 0 mm
17:09 7.4 °C -2.3 °C 1016.5 hPa WSW 14.5 km/h 29 km/h 50% 0 mm
17:14 7.3 °C -1.9 °C 1016.5 hPa SW 14.5 km/h 25.7 km/h 52% 0 mm
17:19 7.2 °C -1.6 °C 1016.5 hPa WSW 6.4 km/h 29 km/h 54% 0 mm
17:24 7.2 °C -2.1 °C 1016.5 hPa SW 14.5 km/h 24.1 km/h 52% 0 mm
17:29 7.2 °C -2.3 °C 1016.5 hPa WSW 8 km/h 22.5 km/h 51% 0 mm
17:34 7.3 °C -1.6 °C 1016.5 hPa WSW 25.7 km/h 25.7 km/h 53% 0 mm
17:39 7.3 °C -1.9 °C 1016.5 hPa SW 19.3 km/h 27.4 km/h 52% 0 mm
17:44 7.2 °C -1.5 °C 1016.5 hPa WSW 14.5 km/h 27.4 km/h 54% 0 mm
17:49 7.3 °C -1.7 °C 1016.5 hPa WSW 12.9 km/h 24.1 km/h 53% 0 mm
17:54 7.4 °C -1.8 °C 1016.8 hPa WSW 9.7 km/h 19.3 km/h 52% 0 mm
17:59 7.3 °C -1.9 °C 1016.5 hPa WSW 9.7 km/h 20.9 km/h 52% 0 mm
18:04 7.3 °C -1.4 °C 1016.5 hPa WSW 11.3 km/h 20.9 km/h 54% 0 mm
18:09 7.1 °C -1.6 °C 1016.8 hPa WSW 12.9 km/h 25.7 km/h 54% 0 mm
18:14 6.9 °C -1.5 °C 1016.8 hPa West 9.7 km/h 24.1 km/h 55% 0 mm
18:19 6.7 °C -1.4 °C 1016.5 hPa West 8 km/h 25.7 km/h 56% 0 mm
18:24 6.7 °C -0.8 °C 1016.5 hPa WSW 8 km/h 14.5 km/h 59% 0 mm
18:29 6.7 °C -1 °C 1016.5 hPa SW 9.7 km/h 20.9 km/h 58% 0 mm
18:34 6.6 °C -0.7 °C 1016.5 hPa SSW 8 km/h 12.9 km/h 60% 0 mm
18:39 6.4 °C -0.8 °C 1016.5 hPa SSW 8 km/h 17.7 km/h 60% 0 mm
18:44 6.3 °C -0.7 °C 1016.5 hPa SSW 11.3 km/h 19.3 km/h 61% 0 mm
18:49 6.2 °C -0.5 °C 1016.5 hPa SW 9.7 km/h 19.3 km/h 62% 0 mm
18:54 6.1 °C -0.6 °C 1016.5 hPa SW 9.7 km/h 19.3 km/h 62% 0 mm
18:59 5.9 °C -0.6 °C 1016.5 hPa SW 12.9 km/h 22.5 km/h 63% 0 mm
19:04 5.7 °C -0.8 °C 1016.5 hPa SW 12.9 km/h 24.1 km/h 63% 0 mm
19:09 5.6 °C -1.1 °C 1016.5 hPa WSW 11.3 km/h 24.1 km/h 62% 0 mm
19:14 5.6 °C -1.2 °C 1016.1 hPa WSW 12.9 km/h 19.3 km/h 62% 0 mm
19:19 5.5 °C -1 °C 1016.5 hPa SW 11.3 km/h 24.1 km/h 63% 0 mm
19:24 5.4 °C -1.1 °C 1016.1 hPa WSW 11.3 km/h 20.9 km/h 63% 0 mm
19:29 5.3 °C -0.9 °C 1016.1 hPa West 12.9 km/h 19.3 km/h 64% 0 mm
19:34 5.3 °C -0.8 °C 1016.1 hPa WSW 16.1 km/h 17.7 km/h 65% 0 mm
19:39 5.2 °C -0.9 °C 1016.5 hPa SW 11.3 km/h 17.7 km/h 65% 0 mm
19:54 4.8 °C -1 °C 1016.5 hPa SW 8 km/h 14.5 km/h 66% 0 mm
19:59 4.8 °C -1.1 °C 1016.5 hPa SW 8 km/h 17.7 km/h 66% 0 mm
20:04 4.7 °C -0.9 °C 1016.5 hPa SW 8 km/h 17.7 km/h 67% 0 mm
20:09 4.7 °C -0.9 °C 1016.5 hPa SW 9.7 km/h 14.5 km/h 67% 0 mm
20:14 4.6 °C -1.1 °C 1016.5 hPa West 4.8 km/h 19.3 km/h 67% 0 mm
20:19 4.6 °C -1.3 °C 1016.5 hPa SW 8 km/h 19.3 km/h 66% 0 mm
20:24 4.5 °C -1.3 °C 1016.5 hPa SW 8 km/h 16.1 km/h 66% 0 mm
20:29 4.5 °C -1.3 °C 1016.5 hPa SW 6.4 km/h 16.1 km/h 66% 0 mm
20:34 4.4 °C -1.2 °C 1016.8 hPa SW 3.2 km/h 12.9 km/h 67% 0 mm
20:39 4.4 °C -1.2 °C 1016.8 hPa SW 8 km/h 16.1 km/h 67% 0 mm
20:44 4.4 °C -1.2 °C 1016.8 hPa SW 4.8 km/h 14.5 km/h 67% 0 mm
20:49 4.4 °C -0.9 °C 1016.8 hPa SW 9.7 km/h 11.3 km/h 68% 0 mm
20:54 4.4 °C -1 °C 1016.8 hPa SW 6.4 km/h 14.5 km/h 68% 0 mm
20:59 4.4 °C -1 °C 1016.8 hPa SW 6.4 km/h 16.1 km/h 68% 0 mm
21:04 4.4 °C -1 °C 1016.8 hPa SW 4.8 km/h 12.9 km/h 68% 0 mm
21:09 4.4 °C -1 °C 1016.8 hPa SW 6.4 km/h 12.9 km/h 68% 0 mm
21:14 4.4 °C -1 °C 1017.2 hPa SSW 11.3 km/h 17.7 km/h 68% 0 mm
21:19 4.4 °C -1.2 °C 1017.2 hPa SW 8 km/h 17.7 km/h 67% 0 mm
21:24 4.4 °C -1.2 °C 1017.2 hPa SW 9.7 km/h 17.7 km/h 67% 0 mm
21:29 4.4 °C -1.2 °C 1017.2 hPa SW 8 km/h 16.1 km/h 67% 0 mm
21:34 4.4 °C -1.2 °C 1017.2 hPa SW 9.7 km/h 17.7 km/h 67% 0 mm
21:44 4.4 °C -1 °C 1017.2 hPa SW 8 km/h 17.7 km/h 68% 0 mm
21:49 4.4 °C -1 °C 1017.2 hPa South 8 km/h 12.9 km/h 68% 0 mm
21:54 4.3 °C -1.1 °C 1017.2 hPa SW 4.8 km/h 12.9 km/h 68% 0 mm
21:59 4.2 °C -0.9 °C 1017.5 hPa SSW 4.8 km/h 11.3 km/h 69% 0 mm
22:04 4.2 °C -0.8 °C 1017.5 hPa SW 8 km/h 16.1 km/h 70% 0 mm
22:09 4.2 °C -0.8 °C 1017.2 hPa SSW 3.2 km/h 11.3 km/h 70% 0 mm
22:14 4.1 °C -0.7 °C 1017.2 hPa SW 3.2 km/h 11.3 km/h 71% 0 mm
22:19 4 °C -0.8 °C 1017.2 hPa WSW 9.7 km/h 12.9 km/h 71% 0 mm
22:24 4 °C -0.6 °C 1017.2 hPa WSW 8 km/h 14.5 km/h 72% 0 mm
22:29 3.9 °C -0.7 °C 1017.5 hPa SW 6.4 km/h 14.5 km/h 72% 0 mm
22:34 3.9 °C -0.5 °C 1017.2 hPa SW 6.4 km/h 12.9 km/h 73% 0 mm
22:39 3.8 °C -0.6 °C 1017.2 hPa SW 6.4 km/h 16.1 km/h 73% 0 mm
22:44 3.8 °C -0.6 °C 1017.2 hPa SW 6.4 km/h 16.1 km/h 73% 0 mm
22:49 3.8 °C -0.6 °C 1017.2 hPa WSW 4.8 km/h 12.9 km/h 73% 0 mm
22:54 3.8 °C -0.6 °C 1017.2 hPa SW 6.4 km/h 9.7 km/h 73% 0 mm
23:04 3.7 °C -0.6 °C 1017.2 hPa SW 3.2 km/h 9.7 km/h 74% 0 mm
23:09 3.6 °C -0.7 °C 1017.2 hPa SW 3.2 km/h 11.3 km/h 74% 0 mm
23:14 3.5 °C -0.5 °C 1017.2 hPa SW 3.2 km/h 8 km/h 75% 0 mm
23:19 3.5 °C -0.5 °C 1017.2 hPa SW 6.4 km/h 11.3 km/h 75% 0 mm
23:24 3.4 °C -0.6 °C 1017.2 hPa SSW 4.8 km/h 11.3 km/h 75% 0 mm
23:29 3.4 °C -0.4 °C 1017.2 hPa SW 4.8 km/h 11.3 km/h 76% 0 mm
23:34 3.3 °C -0.6 °C 1017.5 hPa SW 3.2 km/h 9.7 km/h 76% 0 mm
23:39 3.2 °C -0.6 °C 1017.2 hPa SW 4.8 km/h 11.3 km/h 76% 0 mm
23:44 3.2 °C -0.7 °C 1017.2 hPa SW 4.8 km/h 11.3 km/h 76% 0 mm
23:49 3.2 °C -0.5 °C 1017.2 hPa SW 4.8 km/h 11.3 km/h 77% 0 mm
23:54 3.2 °C -0.4 °C 1017.2 hPa WSW 3.2 km/h 9.7 km/h 77% 0 mm
23:59 3.2 °C -0.5 °C 1017.2 hPa SSW 4.8 km/h 6.4 km/h 77% 0 mm
Buffalo, New York, USA
Compliments of Weather Underground - 2.25 mb